Location: Newark
(48.1281°N, 2.1556°W)
Time: 23:55:29
(UTC+00:00)

Envisat - Pass Details

Date: 23 November 2019
Orbit: 764 x 766 km, 98.1° (Epoch: 07 December)

Event Time Altitude Azimuth Distance (km) Brightness Sun altitude
Rises 19:49:06 0° 225° (SW) 3,223 6.7 -33.9°
Reaches altitude 10° 19:53:48 10° 265° (W) 2,305 6.2 -34.7°
Maximum altitude 19:54:41 10° 276° (W) 2,278 6.2 -34.9°
Drops below altitude 10° 19:55:35 10° 286° (WNW) 2,308 6.3 -35.0°
Sets 20:00:20 0° 326° (NW) 3,243 6.8 -35.8°
